This is the latest recevied weather packets stored in our database for station/object KD0RIH. If no packets are shown the sender has not sent any weather packets the latest 10 day(s).
| Time | Temp. | Humidity | Pressure | Rain* | Wind** | Luminosity | Snow |
|---|---|---|---|---|---|---|---|
| 1777833865 | 25° C | 34% | 1010.9 hPa | 0 mm | - | 639 W/m² | - |
| 1777833562 | 25° C | 33% | 1010.9 hPa | 0 mm | - | 666 W/m² | - |
| 1777833258 | 25° C | 33% | 1011 hPa | 0 mm | - | 701 W/m² | - |
| 1777832955 | 25.56° C | 33% | 1011.1 hPa | 0 mm | - | 709 W/m² | - |
| 1777832654 | 25° C | 33% | 1011.2 hPa | 0 mm | - | 808 W/m² | - |
| 1777832351 | 23.89° C | 35% | 1011.2 hPa | 0 mm | - | 814 W/m² | - |
| 1777832048 | 23.89° C | 36% | 1011.2 hPa | 0 mm | - | 812 W/m² | - |
| 1777831744 | 23.33° C | 36% | 1011.3 hPa | 0 mm | - | 748 W/m² | - |
| 1777831443 | 23.33° C | 37% | 1011.3 hPa | 0 mm | - | 626 W/m² | - |
| 1777831138 | 22.78° C | 38% | 1011.3 hPa | 0 mm | - | 634 W/m² | - |
| 1777830837 | 22.78° C | 37% | 1011.6 hPa | 0 mm | - | 678 W/m² | - |
| 1777830537 | 23.33° C | 36% | 1011.7 hPa | 0 mm | - | 933 W/m² | - |
| 1777830236 | 23.89° C | 37% | 1011.7 hPa | 0 mm | - | 957 W/m² | - |
| 1777829931 | 23.33° C | 38% | 1011.7 hPa | 0 mm | - | 874 W/m² | - |
| 1777829628 | 22.22° C | 37% | 1011.8 hPa | 0 mm | - | 841 W/m² | - |
| 1777829324 | 23.33° C | 36% | 1011.8 hPa | 0 mm | - | 560 W/m² | - |
| 1777829022 | 22.78° C | 36% | 1011.7 hPa | 0 mm | - | 573 W/m² | - |
| 1777828718 | 23.33° C | 36% | 1011.8 hPa | 0 mm | - | 641 W/m² | - |
| 1777828415 | 23.33° C | 38% | 1011.7 hPa | 0 mm | - | 820 W/m² | - |
| 1777828112 | 23.33° C | 37% | 1011.7 hPa | 0 mm | - | 818 W/m² | - |
| 1777827808 | 23.33° C | 36% | 1011.9 hPa | 0 mm | - | 831 W/m² | - |
| 1777827505 | 22.78° C | 39% | 1011.9 hPa | 0 mm | - | 835 W/m² | - |
| 1777827204 | 23.33° C | 36% | 1011.9 hPa | 0 mm | - | 786 W/m² | - |
| 1777826899 | 22.22° C | 39% | 1011.8 hPa | 0 mm | - | 832 W/m² | - |
| 1777826597 | 21.67° C | 38% | 1012 hPa | 0 mm | - | 815 W/m² | - |
* Rain latest hour (hover to see other rain measurements)
** Current wind speed in m/s (hover to see current wind gust speed)